Location: Vesunti
(61.5000°N, 22.8333°E)
Time: 09:17:00
(UTC+00:00)

COSMO-SKYMED 1 - Pass Details

Date: 17 February 2020
Orbit: 621 x 623 km, 97.9° (Epoch: 03 April)

Event Time Altitude Azimuth Distance (km) Brightness Sun altitude
Rises 04:01:57 0° 185° (S) 2,901 5.9 -15.5°
Reaches altitude 10° 04:04:16 10° 194° (SSW) 1,999 5.0 -15.3°
Maximum altitude 04:08:20 38° 263° (W) 959 3.0 -14.8°
Drops below altitude 10° 04:12:26 10° 332° (NNW) 2,013 4.9 -14.3°
Sets 04:14:47 0° 341° (NNW) 2,924 5.8 -14.0°
